DW7888 Weather Reports


time (UTC)temp
C
wind
direction
speed
KPH
gust
KPH
rain 1hr
cm
rain 24hr
cm
rain mn
cm
humidity
%
barometer
mb
20260505184525 28 11 1.6 11.3 0.00 0.00 0.00 33 1013.1
20260505184004 28 252 3.2 17.7 0.00 0.00 0.00 36 1013.2
20260505183507 28 204 4.8 17.7 0.00 0.00 0.00 31 1013.2
20260505183036 28 109 6.4 16.1 0.00 0.00 0.00 34 1013.2
20260505182503 28 173 4.8 16.1 0.00 0.00 0.00 33 1013.2
20260505182007 28 352 3.2 16.1 0.00 0.00 0.00 36 1013.4
20260505181524 27 174 4.8 14.5 0.00 0.00 0.00 35 1013.4
20260505181006 28 130 3.2 19.3 0.00 0.00 0.00 34 1013.5
20260505180510 28 180 3.2 19.3 0.00 0.00 0.00 32 1013.7
20260505180033 28 123 4.8 16.1 0.00 0.00 0.00 36 1013.5
20260505175506 28 163 0.0 11.3 0.00 0.00 0.00 35 1013.6
20260505175008 27 111 4.8 11.3 0.00 0.00 0.00 33 1013.6
20260505174531 28 208 3.2 12.9 0.00 0.00 0.00 36 1013.6
20260505174004 27 107 1.6 14.5 0.00 0.00 0.00 38 1013.7
20260505173507 27 93 4.8 16.1 0.00 0.00 0.00 34 1013.7
20260505173035 27 140 0.0 16.1 0.00 0.00 0.00 36 1013.7
20260505172503 27 244 4.8 17.7 0.00 0.00 0.00 42 1013.7
20260505172012 27 131 3.2 17.7 0.00 0.00 0.00 39 1013.9
20260505171529 27 168 4.8 16.1 0.00 0.00 0.00 39 1013.9
20260505171003 27 164 3.2 16.1 0.00 0.00 0.00 45 1013.9
20260505170510 27 61 3.2 16.1 0.00 0.00 0.00 47 1014.1
20260505170026 27 157 3.2 9.7 0.00 0.00 0.00 43 1014.1
20260505165504 26 42 1.6 12.9 0.00 0.00 0.00 46 1014.1
20260505165006 26 197 1.6 12.9 0.00 0.00 0.00 48 1014.3
20260505164533 26 132 4.8 12.9 0.00 0.00 0.00 43 1014.3
20260505164006 26 126 0.0 11.3 0.00 0.00 0.00 45 1014.4
20260505163508 26 157 3.2 11.3 0.00 0.00 0.00 46 1014.3
20260505163027 26 80 1.6 9.7 0.00 0.00 0.00 45 1014.5
20260505162507 25 125 3.2 12.9 0.00 0.00 0.00 47 1014.4
20260505162012 26 84 0.0 12.9 0.00 0.00 0.00 46 1014.5
20260505161527 26 134 1.6 12.9 0.00 0.00 0.00 49 1014.6
20260505161004 26 186 0.0 6.4 0.00 0.00 0.00 52 1014.6
20260505160508 25 157 1.6 6.4 0.00 0.00 0.00 49 1014.8
20260505153032 24 63 1.6 9.7 0.00 0.00 0.00 50 1015.1
20260505152506 25 126 0.0 11.3 0.00 0.00 0.00 50 1015.1
20260505152011 24 225 1.6 12.9 0.00 0.00 0.00 54 1015.2
20260505151528 23 159 4.8 12.9 0.00 0.00 0.00 50 1015.1
20260505151008 23 165 3.2 12.9 0.00 0.00 0.00 51 1015.0
20260505150513 23 190 1.6 9.7 0.00 0.00 0.00 54 1015.2
20260505140509 21 190 1.6 8.0 0.00 0.00 0.00 60 1015.3
20260505125005 17 146 0.0 4.8 0.00 0.00 0.00 69 1015.3
20260505124507 17 225 0.0 4.8 0.00 0.00 0.00 70 1015.2
20260505124004 17 78 0.0 8.0 0.00 0.00 0.00 71 1015.2
20260505123504 16 42 0.0 8.0 0.00 0.00 0.00 70 1015.2
20260505123008 16 192 0.0 6.4 0.00 0.00 0.00 72 1015.3
20260505122504 16 76 0.0 6.4 0.00 0.00 0.00 72 1015.3
20260505122006 16 342 0.0 6.4 0.00 0.00 0.00 74 1015.2
20260505121512 16 92 0.0 6.4 0.00 0.00 0.00 73 1015.1
20260505121001 16 360 0.0 9.7 0.00 0.00 0.00 74 1015.1
20260505120508 15 345 0.0 9.7 0.00 0.00 0.00 75 1015.0
20260505120010 15 62 0.0 4.8 0.00 0.00 0.00 74 1015.0
20260505115507 15 292 0.0 4.8 0.00 0.00 0.00 75 1015.0
20260505115005 15 200 0.0 6.4 0.00 0.00 0.00 75 1014.9
20260505114509 15 37 0.0 6.4 0.00 0.00 0.00 75 1014.8
20260505114006 15 184 0.0 8.0 0.00 0.00 0.00 76 1014.7
20260505113505 15 82 0.0 8.0 0.00 0.00 0.00 76 1014.7
20260505113010 15 132 0.0 6.4 0.00 0.00 0.00 76 1014.7
20260505112504 15 201 1.6 11.3 0.00 0.00 0.00 76 1014.5
20260505112004 15 220 1.6 14.5 0.00 0.00 0.00 75 1014.4
20260505111517 15 159 1.6 14.5 0.00 0.00 0.00 76 1014.3
20260505111005 15 179 3.2 11.3 0.00 0.00 0.00 76 1014.4
20260505110507 15 139 1.6 9.7 0.00 0.00 0.00 76 1014.3
20260505102008 15 192 0.0 8.0 0.00 0.00 0.00 76 1014.1
20260505101512 14 175 1.6 8.0 0.00 0.00 0.00 76 1014.1
20260505101005 14 147 0.0 4.8 0.00 0.00 0.00 76 1014.1
20260505100506 14 146 0.0 0.0 0.00 0.00 0.00 76 1014.1
20260505100015 14 146 0.0 0.0 0.00 0.00 0.00 75 1014.1
20260505095504 15 76 0.0 0.0 0.00 0.00 0.00 75 1014.1
20260505095004 15 78 0.0 3.2 0.00 0.00 0.00 75 1014.1
20260505094514 15 182 0.0 3.2 0.00 0.00 0.00 74 1014.2
20260505094009 15 123 0.0 3.2 0.00 0.00 0.00 74 1014.1
20260505093511 15 62 0.0 3.2 0.00 0.00 0.00 73 1014.1
20260505093015 15 116 0.0 3.2 0.00 0.00 0.00 73 1014.0
20260505092508 15 194 0.0 4.8 0.00 0.00 0.00 73 1014.0
20260505092009 15 86 0.0 9.7 0.00 0.00 0.00 73 1014.0
20260505091522 15 123 0.0 9.7 0.00 0.00 0.00 72 1014.0
20260505091007 15 188 1.6 9.7 0.00 0.00 0.00 72 1013.9
20260505090505 15 188 0.0 3.2 0.00 0.00 0.00 72 1013.9
20260505090026 15 192 0.0 4.8 0.00 0.00 0.00 71 1013.9
20260505085505 15 169 0.0 6.4 0.00 0.00 0.00 71 1013.9
20260505085005 15 195 0.0 8.0 0.00 0.00 0.00 71 1013.9
20260505084520 15 110 0.0 8.0 0.00 0.00 0.00 71 1013.9
20260505084012 15 164 0.0 3.2 0.00 0.00 0.00 71 1013.9
20260505083507 15 181 0.0 3.2 0.00 0.00 0.00 71 1013.9
20260505083016 15 196 0.0 3.2 0.00 0.00 0.00 71 1014.0
20260505082506 16 173 0.0 3.2 0.00 0.00 0.00 71 1013.9
20260505082010 16 161 0.0 3.2 0.00 0.00 0.00 70 1013.9
20260505081521 16 157 0.0 4.8 0.00 0.00 0.00 70 1013.9
20260505081008 16 134 0.0 4.8 0.00 0.00 0.00 69 1013.9
20260505080508 16 126 0.0 6.4 0.00 0.00 0.00 69 1013.8
20260505080041 16 157 0.0 11.3 0.00 0.00 0.00 69 1013.9
20260505075506 16 179 1.6 11.3 0.00 0.00 0.00 68 1013.8
20260505075006 16 126 0.0 17.7 0.00 0.00 0.00 68 1013.8
20260505074519 16 161 0.0 17.7 0.00 0.00 0.00 68 1013.8
20260505074006 16 167 1.6 8.0 0.00 0.00 0.00 68 1013.8
20260505073507 16 151 0.0 8.0 0.00 0.00 0.00 67 1013.7
20260505073015 16 238 1.6 8.0 0.00 0.00 0.00 67 1013.6
20260505072507 16 148 0.0 8.0 0.00 0.00 0.00 67 1013.5
20260505072012 16 167 0.0 14.5 0.00 0.00 0.00 66 1013.4
20260505071514 16 115 0.0 14.5 0.00 0.00 0.00 66 1013.4
20260505071008 16 155 0.0 11.3 0.00 0.00 0.00 65 1013.3
20260505070511 16 173 1.6 12.9 0.00 0.00 0.00 65 1013.3
20260505070021 16 126 1.6 12.9 0.00 0.00 0.00 65 1013.2
20260505065508 16 114 1.6 14.5 0.00 0.00 0.00 65 1013.2
20260505065007 16 196 0.0 14.5 0.00 0.00 0.00 64 1013.3
20260505064513 16 156 0.0 11.3 0.00 0.00 0.00 63 1013.3
20260505064013 16 146 1.6 11.3 0.00 0.00 0.00 63 1013.3
20260505063511 16 146 1.6 9.7 0.00 0.00 0.00 62 1013.3
20260505063015 16 170 1.6 14.5 0.00 0.00 0.00 62 1013.3
20260505062507 16 169 1.6 14.5 0.00 0.00 0.00 62 1013.2
20260505062009 16 120 4.8 14.5 0.00 0.00 0.00 62 1013.1
20260505061520 16 172 1.6 11.3 0.00 0.00 0.00 61 1013.2
20260505061012 17 150 1.6 6.4 0.00 0.00 0.00 61 1013.2
20260505060511 17 177 1.6 9.7 0.00 0.00 0.00 60 1013.2
20260505060024 17 132 3.2 9.7 0.00 0.00 0.00 60 1013.3
20260505055504 17 123 1.6 12.9 0.00 0.00 0.00 59 1013.2
20260505055006 17 89 1.6 12.9 0.00 0.00 0.00 59 1013.2
20260505054503 17 132 3.2 11.3 0.00 0.00 0.00 58 1013.3
20260505054003 17 204 3.2 11.3 0.00 0.00 0.00 58 1013.3
20260505053507 17 129 1.6 11.3 0.00 0.00 0.00 58 1013.2
20260505053004 17 199 1.6 11.3 0.00 0.00 0.00 57 1013.3
20260505052502 17 140 3.2 12.9 0.00 0.00 0.00 56 1013.2
20260505052006 17 88 4.8 16.1 0.00 0.00 0.00 56 1013.3
20260505051504 17 148 1.6 16.1 0.00 0.00 0.00 56 1013.3
20260505051002 18 174 3.2 12.9 0.00 0.00 0.00 55 1013.2
20260505050511 18 148 3.2 16.1 0.00 0.00 0.00 55 1013.1
20260505041504 18 146 3.2 11.3 0.00 0.00 0.00 53 1012.8
20260505041002 18 194 1.6 12.9 0.00 0.00 0.00 54 1012.8
20260505040512 18 198 3.2 12.9 0.00 0.00 0.00 53 1012.7
20260505040005 18 121 3.2 12.9 0.00 0.00 0.00 53 1012.7
20260505035507 18 174 3.2 11.3 0.00 0.00 0.00 52 1012.6
20260505035011 18 169 1.6 16.1 0.00 0.00 0.00 53 1012.6
20260505034508 18 194 4.8 16.1 0.00 0.00 0.00 53 1012.7
20260505034006 18 131 3.2 9.7 0.00 0.00 0.00 52 1012.7
20260505033507 18 188 3.2 14.5 0.00 0.00 0.00 53 1012.7
20260505033004 18 155 3.2 14.5 0.00 0.00 0.00 52 1012.7
20260505032507 19 103 1.6 12.9 0.00 0.00 0.00 52 1012.7
20260505032010 19 159 1.6 8.0 0.00 0.00 0.00 51 1012.7
20260505031505 18 124 3.2 8.0 0.00 0.00 0.00 52 1012.7
20260505031010 18 164 1.6 8.0 0.00 0.00 0.00 52 1012.7
20260505030507 19 155 0.0 8.0 0.00 0.00 0.00 52 1012.7
20260505030004 19 165 1.6 8.0 0.00 0.00 0.00 51 1012.7
20260505025507 19 132 1.6 8.0 0.00 0.00 0.00 52 1012.7
20260505025007 19 185 1.6 8.0 0.00 0.00 0.00 52 1012.7
20260505024506 19 154 1.6 9.7 0.00 0.00 0.00 51 1012.8
20260505024006 19 182 1.6 9.7 0.00 0.00 0.00 51 1012.8
20260505023503 19 184 1.6 11.3 0.00 0.00 0.00 52 1012.8
20260505023007 19 167 1.6 11.3 0.00 0.00 0.00 52 1012.8
20260505022504 19 150 3.2 8.0 0.00 0.00 0.00 52 1012.8
20260505022003 19 113 1.6 8.0 0.00 0.00 0.00 51 1012.7
20260505021509 19 180 1.6 6.4 0.00 0.00 0.00 52 1012.7
20260505021008 20 155 1.6 6.4 0.00 0.00 0.00 50 1012.7
20260505020503 20 171 0.0 6.4 0.00 0.00 0.00 50 1012.7
20260505020014 20 120 1.6 6.4 0.00 0.00 0.00 50 1012.7
20260505015512 20 101 1.6 6.4 0.00 0.00 0.00 50 1012.8
20260505015005 20 173 1.6 4.8 0.00 0.00 0.00 50 1012.7
20260505014508 20 150 1.6 6.4 0.00 0.00 0.00 50 1012.7
20260505014007 20 196 1.6 6.4 0.00 0.00 0.00 49 1012.7
20260505013502 20 115 1.6 6.4 0.00 0.00 0.00 49 1012.5
20260505013011 20 131 0.0 6.4 0.00 0.00 0.00 50 1012.4
20260505012512 20 129 0.0 6.4 0.00 0.00 0.00 49 1012.4
20260505012004 20 148 0.0 9.7 0.00 0.00 0.00 50 1012.4
20260505011517 20 166 1.6 9.7 0.00 0.00 0.00 50 1012.4
20260505011008 20 121 1.6 4.8 0.00 0.00 0.00 51 1012.3
20260505010503 20 137 0.0 4.8 0.00 0.00 0.00 51 1012.3
20260505010011 20 135 0.0 4.8 0.00 0.00 0.00 50 1012.4
20260505005509 20 110 0.0 1.6 0.00 0.00 0.00 50 1012.3
20260505005005 20 142 0.0 1.6 0.00 0.00 0.00 50 1012.2
20260505004513 20 163 0.0 3.2 0.00 0.00 0.00 49 1012.1
20260505004009 20 161 0.0 4.8 0.00 0.00 0.00 50 1012.2
20260505003502 20 159 0.0 4.8 0.00 0.00 0.00 49 1012.1
20260505003012 20 146 0.0 1.6 0.00 0.00 0.00 50 1012.2
20260505002507 20 150 0.0 0.0 0.00 0.00 0.00 48 1012.2
20260505002004 21 124 0.0 0.0 0.00 0.00 0.00 48 1012.2
20260505001514 21 122 0.0 1.6 0.00 0.00 0.00 49 1012.2
20260505001006 21 116 0.0 6.4 0.00 0.00 0.00 47 1012.2
20260505000503 21 146 0.0 6.4 0.00 0.00 0.00 48 1012.1
20260505000027 21 138 0.0 1.6 0.00 0.00 0.00 48 1012.4
20260504235509 21 138 0.0 1.6 0.00 0.00 0.00 47 1012.4
20260504235006 21 138 0.0 1.6 0.00 0.00 0.00 47 1012.4
20260504234516 21 173 0.0 1.6 0.00 0.00 0.00 46 1012.3
20260504234009 21 173 0.0 1.6 0.00 0.00 0.00 45 1012.3
20260504233508 22 173 0.0 1.6 0.00 0.00 0.00 44 1012.3
20260504233018 22 196 0.0 1.6 0.00 0.00 0.00 44 1012.2
20260504232511 22 196 0.0 3.2 0.00 0.00 0.00 42 1012.2
20260504232006 22 151 0.0 3.2 0.00 0.00 0.00 41 1012.2
20260504231516 22 172 0.0 3.2 0.00 0.00 0.00 41 1012.1
20260504231009 22 177 0.0 3.2 0.00 0.00 0.00 40 1012.0
20260504230504 23 127 0.0 4.8 0.00 0.00 0.00 39 1011.9
20260504230020 23 121 0.0 8.0 0.00 0.00 0.00 39 1011.9
20260504225513 23 227 0.0 8.0 0.00 0.00 0.00 39 1011.9
20260504225007 23 138 0.0 9.7 0.00 0.00 0.00 37 1012.0
20260504224521 23 180 1.6 9.7 0.00 0.00 0.00 37 1012.0
20260504224007 23 190 1.6 8.0 0.00 0.00 0.00 38 1012.1
20260504223508 23 211 1.6 8.0 0.00 0.00 0.00 36 1012.2
20260504223020 23 79 0.0 8.0 0.00 0.00 0.00 37 1012.1
20260504222511 23 119 1.6 8.0 0.00 0.00 0.00 37 1012.1
20260504222011 23 325 0.0 8.0 0.00 0.00 0.00 37 1012.1
20260504221522 23 209 0.0 6.4 0.00 0.00 0.00 36 1012.1
20260504221010 23 140 1.6 11.3 0.00 0.00 0.00 36 1012.0
20260504220508 23 179 0.0 11.3 0.00 0.00 0.00 37 1012.0
20260504220022 23 223 4.8 11.3 0.00 0.00 0.00 37 1012.1
20260504215507 23 156 1.6 9.7 0.00 0.00 0.00 37 1012.1
20260504215009 24 20 0.0 11.3 0.00 0.00 0.00 37 1012.1
20260504214523 24 147 1.6 11.3 0.00 0.00 0.00 37 1012.1
20260504214010 24 119 0.0 9.7 0.00 0.00 0.00 37 1012.0
20260504213507 24 185 0.0 11.3 0.00 0.00 0.00 37 1012.0
20260504213044 24 201 1.6 11.3 0.00 0.00 0.00 35 1011.9
20260504212511 24 140 1.6 9.7 0.00 0.00 0.00 35 1011.9
20260504212007 25 17 1.6 8.0 0.00 0.00 0.00 36 1011.9
20260504211525 25 130 0.0 6.4 0.00 0.00 0.00 36 1011.9
20260504211007 25 65 0.0 6.4 0.00 0.00 0.00 35 1011.9
20260504210508 25 26 1.6 4.8 0.00 0.00 0.00 36 1011.9
20260504210027 25 100 0.0 6.4 0.00 0.00 0.00 35 1012.0
20260504205504 25 184 0.0 11.3 0.00 0.00 0.00 37 1011.9
20260504205003 25 98 0.0 11.3 0.00 0.00 0.00 36 1011.9
20260504204504 25 204 4.8 11.3 0.00 0.00 0.00 34 1011.9
20260504204004 25 56 0.0 6.4 0.00 0.00 0.00 35 1011.9
20260504203506 25 207 1.6 8.0 0.00 0.00 0.00 34 1012.0
20260504203008 25 162 0.0 8.0 0.00 0.00 0.00 34 1012.1
20260504202504 25 171 0.0 11.3 0.00 0.00 0.00 35 1012.1
20260504202008 25 96 3.2 11.3 0.00 0.00 0.00 36 1012.0
20260504201505 25 324 1.6 11.3 0.00 0.00 0.00 35 1012.2
20260504201005 25 352 1.6 14.5 0.00 0.00 0.00 35 1012.3
20260504200502 25 145 4.8 16.1 0.00 0.00 0.00 35 1012.2
20260504200006 25 105 0.0 16.1 0.00 0.00 0.00 37 1012.3
20260504195508 25 215 3.2 14.5 0.00 0.00 0.00 36 1012.3
20260504195003 25 160 1.6 6.4 0.00 0.00 0.00 35 1012.3
20260504194507 25 129 1.6 8.0 0.00 0.00 0.00 34 1012.4
20260504194003 25 124 1.6 8.0 0.00 0.00 0.00 35 1012.4
20260504193503 24 28 1.6 9.7 0.00 0.00 0.00 37 1012.5
20260504193007 24 24 1.6 9.7 0.00 0.00 0.00 36 1012.5
20260504192506 24 11 0.0 4.8 0.00 0.00 0.00 39 1012.7
20260504192003 24 144 0.0 6.4 0.00 0.00 0.00 36 1012.8
20260504191508 24 339 0.0 6.4 0.00 0.00 0.00 39 1012.8
20260504191012 24 63 1.6 14.5 0.00 0.00 0.00 37 1013.0
20260504190504 24 265 1.6 14.5 0.00 0.00 0.00 37 1013.0
20260504190007 25 126 3.2 8.0 0.00 0.00 0.00 35 1013.0
20260504185510 24 49 0.0 9.7 0.00 0.00 0.00 37 1013.0
20260504185002 23 215 3.2 9.7 0.00 0.00 0.00 38 1013.2